GW3294 Weather Reports


time (UTC)temp
C
wind
direction
speed
KPH
gust
KPH
rain 1hr
cm
rain 24hr
cm
rain mn
cm
humidity
%
barometer
mb
20260504234933 26 267 4.8 14.5 0.00 0.38 0.38 49 1004.4
20260504234431 26 207 1.6 8.0 0.00 0.38 0.38 50 1004.5
20260504233927 26 156 3.2 6.4 0.00 0.38 0.38 50 1004.6
20260504233423 26 284 3.2 17.7 0.00 0.38 0.38 49 1004.8
20260504232919 26 163 3.2 11.3 0.00 0.38 0.38 49 1004.5
20260504232417 26 288 0.0 12.9 0.00 0.38 0.38 48 1004.8
20260504231913 26 131 3.2 14.5 0.00 0.38 0.38 49 1004.9
20260504231404 26 216 1.6 11.3 0.00 0.38 0.38 48 1004.9
20260504230901 26 156 4.8 9.7 0.00 0.38 0.38 47 1005.1
20260504230358 26 149 4.8 11.3 0.00 0.38 0.38 49 1005.2
20260504225857 26 195 0.0 4.8 0.00 0.38 0.38 55 1005.3
20260504225353 25 130 3.2 6.4 0.00 0.38 0.38 56 1005.2
20260504224851 25 223 3.2 9.7 0.00 0.38 0.38 62 1005.2
20260504224347 25 186 0.0 1.6 0.00 0.38 0.38 65 1005.3
20260504223844 25 51 0.0 1.6 0.00 0.38 0.38 67 1005.2
20260504223339 25 96 0.0 3.2 0.00 0.38 0.38 63 1005.4
20260504222836 25 322 0.0 1.6 0.00 0.38 0.38 60 1005.4
20260504222333 25 315 0.0 3.2 0.00 0.38 0.38 58 1005.5
20260504221832 25 104 0.0 4.8 0.00 0.38 0.38 57 1005.3
20260504221327 25 142 0.0 3.2 0.00 0.38 0.38 58 1005.4
20260504220825 25 185 0.0 4.8 0.00 0.38 0.38 57 1005.5
20260504220321 25 68 1.6 4.8 0.00 0.38 0.38 58 1005.2
20260504215819 25 134 3.2 11.3 0.00 0.38 0.38 58 1005.4
20260504215315 26 125 3.2 6.4 0.00 0.38 0.38 55 1005.3
20260504214811 26 222 0.0 6.4 0.00 0.38 0.38 54 1005.3
20260504214308 26 142 4.8 14.5 0.00 0.38 0.38 55 1005.4
20260504213805 27 331 1.6 4.8 0.00 0.38 0.38 56 1005.6
20260504213301 26 255 3.2 4.8 0.00 0.38 0.38 60 1005.5
20260504212759 26 78 3.2 8.0 0.00 0.38 0.38 58 1005.6
20260504212255 26 253 0.0 8.0 0.00 0.38 0.38 60 1005.6
20260504211752 25 166 3.2 8.0 0.00 0.38 0.38 61 1005.7
20260504211248 25 198 0.0 11.3 0.00 0.38 0.38 63 1005.7
20260504210746 25 123 0.0 8.0 0.00 0.38 0.38 65 1005.7
20260504210243 25 154 3.2 8.0 0.00 0.38 0.38 65 1005.7
20260504205740 25 22 0.0 3.2 0.00 0.38 0.38 67 1005.7
20260504205238 24 101 0.0 14.5 0.00 0.38 0.38 66 1005.9
20260504204736 24 166 4.8 9.7 0.00 0.38 0.38 65 1005.9
20260504204234 23 95 0.0 6.4 0.00 0.38 0.38 71 1006.1
20260504203733 24 132 3.2 3.2 0.00 0.38 0.38 70 1006.1
20260504203230 24 157 4.8 12.9 0.00 0.38 0.38 65 1006.3
20260504202729 23 143 1.6 8.0 0.00 0.38 0.38 71 1006.3
20260504202227 23 194 1.6 8.0 0.00 0.38 0.38 70 1006.2
20260504201724 22 154 0.0 3.2 0.00 0.38 0.38 78 1006.3
20260504201221 22 89 1.6 3.2 0.00 0.38 0.38 80 1006.1
20260504200719 21 137 0.0 4.8 0.00 0.38 0.38 85 1006.5
20260504200214 20 255 0.0 3.2 0.00 0.38 0.38 89 1006.5
20260504195711 20 109 4.8 6.4 0.00 0.38 0.38 90 1006.2
20260504195207 18 77 0.0 3.2 0.00 0.38 0.38 92 1006.1
20260504194704 18 161 0.0 4.8 0.00 0.38 0.38 96 1006.3
20260504194200 18 157 3.2 4.8 0.00 0.38 0.38 96 1006.8
20260504193657 19 173 0.0 3.2 0.00 0.38 0.38 96 1006.9
20260504193155 18 163 1.6 3.2 0.00 0.38 0.38 96 1007.0
20260504192652 17 276 3.2 3.2 0.00 0.38 0.38 97 1006.9
20260504192150 16 31 1.6 3.2 0.00 0.38 0.38 97 1006.6
20260504191649 16 0 3.2 4.8 0.00 0.38 0.38 98 1006.8
20260504191144 16 236 1.6 3.2 0.00 0.38 0.38 98 1006.9
20260504190641 16 87 1.6 4.8 0.05 0.38 0.38 98 1007.3
20260504190137 15 63 1.6 3.2 0.13 0.38 0.38 98 1007.7
20260504185634 15 98 1.6 4.8 0.18 0.38 0.38 98 1007.8
20260504185130 15 97 3.2 4.8 0.13 0.36 0.36 97 1008.2
20260504184626 15 350 0.0 4.8 0.13 0.33 0.33 97 1008.1
20260504184121 15 43 1.6 3.2 0.18 0.33 0.33 96 1008.0
20260504183619 15 344 3.2 4.8 0.13 0.33 0.33 95 1007.5
20260504183116 15 19 3.2 4.8 0.23 0.30 0.30 95 1007.3
20260504182614 15 19 3.2 6.4 1.07 0.28 0.28 95 1007.3
20260504182111 15 118 0.0 4.8 1.14 0.25 0.25 95 1007.8
20260504181609 16 148 4.8 6.4 0.13 0.08 0.08 94 1008.6
20260504181106 16 96 1.6 4.8 0.00 0.05 0.05 92 1008.6
20260504180605 16 47 1.6 3.2 0.00 0.05 0.05 91 1008.4
20260504180104 16 31 0.0 3.2 0.00 0.05 0.05 91 1008.3
20260504175600 16 18 1.6 3.2 0.00 0.05 0.05 90 1008.0
20260504175057 16 1 1.6 3.2 0.00 0.05 0.05 91 1007.9
20260504174555 16 85 3.2 4.8 0.00 0.05 0.05 91 1008.0
20260504174051 16 89 0.0 3.2 0.00 0.05 0.05 89 1008.1
20260504173548 16 114 0.0 1.6 0.00 0.05 0.05 88 1008.1
20260504173046 16 132 1.6 3.2 0.00 0.05 0.05 85 1008.3
20260504172542 16 109 0.0 4.8 0.00 0.05 0.05 85 1008.2
20260504172038 16 89 0.0 3.2 0.00 0.05 0.05 82 1008.6
20260504171535 16 57 0.0 3.2 0.00 0.05 0.05 81 1008.3
20260504171032 17 45 0.0 4.8 0.18 0.05 0.05 77 1008.2
20260504170528 17 89 0.0 4.8 0.13 0.05 0.05 78 1008.1
20260504150912 20 230 0.0 3.2 0.00 0.00 0.00 60 1010.5
20260504150409 20 214 0.0 4.8 0.00 0.00 0.00 63 1010.3
20260504140835 20 213 0.0 4.8 0.00 0.00 0.00 62 1010.0
20260504140331 20 150 3.2 4.8 0.00 0.00 0.00 63 1010.1
20260504130800 17 88 3.2 8.0 0.00 0.00 0.00 70 1010.6
20260504130256 17 137 0.0 12.9 0.00 0.00 0.00 71 1010.6
20260504120220 12 157 1.6 4.8 0.00 0.00 0.00 89 1011.1
20260504110647 11 124 1.6 3.2 0.00 0.00 0.00 90 1011.1
20260504110143 11 135 3.2 4.8 0.00 0.00 0.00 90 1011.3
20260504100609 12 111 1.6 3.2 0.00 0.00 0.00 88 1010.8
20260504100107 12 114 0.0 3.2 0.00 0.00 0.00 88 1010.7
20260504082003 13 69 1.6 4.8 0.00 0.00 0.00 83 1010.7
20260504081500 13 144 0.0 4.8 0.00 0.00 0.00 82 1010.9
20260504080949 13 138 4.8 4.8 0.00 0.00 0.00 82 1010.7
20260504080447 13 65 0.0 3.2 0.00 0.00 0.00 81 1011.0
20260504050253 18 133 0.0 6.4 0.00 0.00 0.00 56 1010.7
20260504045750 18 295 4.8 11.3 0.00 0.00 0.00 56 1010.6
20260504045245 18 269 0.0 11.3 0.00 0.00 0.00 55 1010.8
20260504044743 19 187 3.2 12.9 0.00 0.00 0.00 55 1010.8
20260504044240 19 274 1.6 6.4 0.00 0.00 0.00 55 1010.9
20260504043737 19 112 4.8 9.7 0.00 0.00 0.00 55 1010.9
20260504043234 19 257 0.0 4.8 0.00 0.00 0.00 54 1011.0
20260504042732 19 196 0.0 9.7 0.00 0.00 0.00 54 1011.2
20260504042228 19 187 4.8 9.7 0.00 0.00 0.00 54 1011.5
20260504041724 20 197 0.0 8.0 0.00 0.00 0.00 53 1011.5
20260504041220 20 188 1.6 8.0 0.00 0.00 0.00 53 1011.5
20260504040717 20 134 3.2 6.4 0.00 0.00 0.00 53 1011.5
20260504040214 20 134 4.8 16.1 0.00 0.00 0.00 52 1011.5
20260504035710 20 243 3.2 6.4 0.00 0.00 0.00 52 1011.2
20260504035208 20 340 3.2 11.3 0.00 0.00 0.00 52 1011.8
20260504034705 20 239 3.2 11.3 0.00 0.00 0.00 52 1012.2
20260504034202 20 210 1.6 6.4 0.00 0.00 0.00 52 1011.9
20260504033700 20 230 3.2 4.8 0.00 0.00 0.00 53 1012.0
20260504033156 20 226 1.6 6.4 0.00 0.00 0.00 52 1011.9
20260504032653 20 245 3.2 11.3 0.00 0.00 0.00 52 1012.1
20260504032151 20 59 1.6 4.8 0.00 0.00 0.00 53 1012.1
20260504031647 20 296 3.2 8.0 0.00 0.00 0.00 52 1012.1
20260504031144 20 269 0.0 8.0 0.00 0.00 0.00 53 1012.2
20260504030640 19 231 3.2 4.8 0.00 0.00 0.00 53 1012.1
20260504030137 20 129 0.0 6.4 0.00 0.00 0.00 52 1012.1
20260504025634 20 146 3.2 6.4 0.00 0.00 0.00 54 1011.8
20260504025131 20 160 0.0 6.4 0.00 0.00 0.00 51 1012.1
20260504024628 20 132 0.0 6.4 0.00 0.00 0.00 52 1011.8
20260504024125 19 157 0.0 4.8 0.00 0.00 0.00 53 1012.0
20260504023621 19 151 1.6 6.4 0.00 0.00 0.00 54 1011.8
20260504023117 19 203 0.0 3.2 0.00 0.00 0.00 55 1012.0
20260504022614 19 205 1.6 3.2 0.00 0.00 0.00 55 1011.9
20260504022110 18 124 0.0 3.2 0.00 0.00 0.00 56 1011.9
20260504021608 18 121 1.6 3.2 0.00 0.00 0.00 58 1011.8
20260504021104 18 145 0.0 4.8 0.00 0.00 0.00 57 1011.7
20260504020601 19 141 0.0 3.2 0.00 0.00 0.00 57 1011.8
20260504020057 19 168 0.0 3.2 0.00 0.00 0.00 55 1011.7
20260504015554 19 153 1.6 3.2 0.00 0.00 0.00 58 1011.6
20260504015050 19 75 0.0 3.2 0.00 0.00 0.00 55 1011.6
20260504014546 20 162 0.0 6.4 0.00 0.00 0.00 55 1011.6
20260504014044 20 180 0.0 4.8 0.00 0.00 0.00 52 1011.5
20260504013541 20 129 0.0 1.6 0.00 0.00 0.00 56 1011.4
20260504013038 20 142 0.0 1.6 0.00 0.00 0.00 54 1011.5
20260504012536 21 122 0.0 1.6 0.00 0.00 0.00 52 1011.4
20260504012033 21 99 0.0 1.6 0.00 0.00 0.00 50 1011.4
20260504011530 21 224 0.0 4.8 0.00 0.00 0.00 51 1011.3
20260504011026 22 164 0.0 1.6 0.00 0.00 0.00 48 1011.3
20260504010521 22 164 0.0 4.8 0.00 0.00 0.00 45 1011.4
20260504010018 22 200 1.6 3.2 0.00 0.00 0.00 44 1011.4
20260504005515 22 134 0.0 8.0 0.00 0.00 0.00 45 1011.3
20260504005012 22 135 0.0 3.2 0.00 0.00 0.00 44 1011.4
20260504004510 22 256 0.0 3.2 0.00 0.00 0.00 42 1011.3
20260504004007 22 183 1.6 3.2 0.00 0.00 0.00 42 1011.3
20260504003503 23 154 0.0 4.8 0.00 0.00 0.00 41 1011.2
20260504003000 23 164 1.6 4.8 0.00 0.00 0.00 41 1011.4
20260504002457 23 195 0.0 9.7 0.00 0.00 0.00 40 1011.3
20260504001954 23 220 3.2 4.8 0.00 0.00 0.00 40 1011.1
20260504001451 23 131 0.0 6.4 0.00 0.00 0.00 40 1011.2
20260504000948 23 153 1.6 6.4 0.00 0.00 0.00 39 1011.2
20260504000445 23 189 8.0 9.7 0.00 0.00 0.00 39 1011.2
20260503235942 24 151 3.2 6.4 0.00 0.00 0.00 38 1011.3
20260503235440 24 198 3.2 6.4 0.00 0.00 0.00 38 1011.5